Flag for Australia Weather past 2 weeks in Traralgon, Victoria, Australia

Now
63 °F

Mild.


Feels Like: 63 °F
Forecast: 52 / 70 °F
Wind: 18 mph from Southwest

Location: Latrobe Valley Airport

Current Time: Mar 1, 2015 at 6:17:54 AM

Latest Report: Mar 1, 2015 at 4:00 AM


Visibility: N/A

Pressure: 29.64 "Hg

Humidity: 100%

Dew point: 63 °F

Location of TraralgonLocation

Historic Weather in Traralgon — Graph

°F

Traralgon temperature yesterday

Maximum temperature yesterday: 79 °F (at 6:00 PM)
Minimum temperature yesterday: 62 °F (at 6:00 AM)
Average temperature yesterday: 69 °F

Past Weeks' High & Low Weather Summary

 TemperatureHumidityPressure
High97 °F (Feb 22, 3:00 PM)100% (Feb 14, 4:00 AM)30.17 "Hg (Feb 14, 4:00 AM)
Low55 °F (Feb 27, 4:00 AM)33% (Feb 22, 3:00 PM)29.56 "Hg (Feb 28, 9:00 PM)
Average68 °F82%29.95 "Hg
* Reported Feb 14 4:00 AM — Mar 1 4:00 AM, Traralgon, Weather by CustomWeather, © 2015

Note: Actual official high and low records may vary slightly from our data, if they occured in-between our weather recording intervals... More about our weather records

Advertising

Traralgon weather history for previous 24 hours

 ConditionsComfort  
Time TempWeatherWind HumidityBarometerVisibility
4:00 AM
Sun, Mar 1
63 °FMild.18 mph100%29.64 "HgN/A
3:00 AM65 °FOvercast.7 mph100%29.63 "Hg4 mi
1:00 AM64 °FMild.7 mph100%29.66 "HgN/A
12:00 AM64 °FOvercast.10 mph100%29.69 "HgN/A
10:00 PM
Sat, Feb 28
71 °FMild.17 mph86%29.62 "HgN/A
9:00 PM72 °FPassing clouds.7 mph82%29.56 "HgN/A
7:00 PM78 °FWarm.8 mph61%29.59 "HgN/A
6:00 PM79 °FOvercast.6 mph60%29.61 "HgN/A
4:00 PM77 °FWarm.6 mph66%29.63 "HgN/A
3:00 PM76 °FOvercast.5 mph67%29.66 "HgN/A
1:00 PM71 °FMild.2 mph79%29.70 "HgN/A
12:00 PM70 °FOvercast.5 mph76%29.71 "HgN/A
10:00 AM66 °FMild.6 mph85%29.75 "HgN/A
9:00 AM65 °FLow clouds.6 mph93%29.76 "HgN/A
7:00 AM62 °FCool.8 mph100%29.73 "HgN/A
6:00 AM62 °FOvercast.6 mph96%29.75 "HgN/A
Weather by CustomWeather, © 2015

See weather overviewHow to use our weather pages